TimeEST,TemperatureF,Dew PointF,Humidity,Sea Level PressureIn,VisibilityMPH,Wind Direction,Wind SpeedMPH,Gust SpeedMPH,PrecipitationIn,Events,Conditions,WindDirDegrees,DateUTC
12:36 AM,46.4,44.6,93,29.98,6.0,SW,3.5,-,0.06,Rain,Rain,220,2012-12-05 05:36:00
12:46 AM,46.4,44.6,93,29.99,10.0,WSW,4.6,-,0.07,Rain,Light Rain,240,2012-12-05 05:46:00
12:53 AM,46.9,44.1,90,29.99,10.0,WSW,4.6,-,0.07,Rain,Light Rain,240,2012-12-05 05:53:00
1:53 AM,45.0,42.1,90,30.00,10.0,SW,3.5,-,0.00,,Mostly Cloudy,230,2012-12-05 06:53:00
2:53 AM,43.0,39.0,86,30.01,10.0,West,5.8,-,N/A,,Mostly Cloudy,270,2012-12-05 07:53:00
3:08 AM,44.6,39.2,81,30.01,10.0,WSW,4.6,-,N/A,,Scattered Clouds,250,2012-12-05 08:08:00
3:53 AM,43.0,37.9,82,30.02,10.0,SW,4.6,-,N/A,,Mostly Cloudy,230,2012-12-05 08:53:00
4:14 AM,42.8,37.4,81,30.02,10.0,WSW,5.8,-,N/A,,Scattered Clouds,240,2012-12-05 09:14:00
4:53 AM,41.0,37.0,86,30.04,10.0,SW,4.6,-,N/A,,Clear,230,2012-12-05 09:53:00
5:53 AM,41.0,35.1,79,30.05,10.0,WSW,8.1,-,N/A,,Scattered Clouds,240,2012-12-05 10:53:00
6:53 AM,41.0,35.1,79,30.07,10.0,WSW,5.8,-,N/A,,Overcast,240,2012-12-05 11:53:00
7:53 AM,41.0,33.1,73,30.09,10.0,WSW,5.8,-,N/A,,Overcast,250,2012-12-05 12:53:00
9:53 AM,43.0,30.9,62,30.12,10.0,NW,8.1,-,N/A,,Overcast,320,2012-12-05 14:53:00
10:53 AM,39.9,27.0,60,30.15,10.0,WNW,13.8,20.7,N/A,,Overcast,300,2012-12-05 15:53:00
11:53 AM,37.9,24.1,57,30.17,10.0,WNW,11.5,28.8,N/A,,Overcast,290,2012-12-05 16:53:00
12:53 PM,37.0,23.0,57,30.17,10.0,NW,16.1,27.6,N/A,,Overcast,310,2012-12-05 17:53:00
1:53 PM,36.0,21.0,55,30.19,10.0,West,12.7,23.0,0.00,,Overcast,280,2012-12-05 18:53:00
2:53 PM,35.1,21.9,59,30.22,10.0,WNW,9.2,18.4,0.00,Snow,Light Snow,300,2012-12-05 19:53:00
3:53 PM,34.0,21.0,59,30.24,10.0,WNW,15.0,18.4,0.00,,Overcast,300,2012-12-05 20:53:00
4:53 PM,33.1,21.0,61,30.26,10.0,NW,8.1,-,N/A,,Overcast,320,2012-12-05 21:53:00
5:53 PM,32.0,19.9,61,30.30,10.0,NNW,9.2,17.3,0.00,,Overcast,330,2012-12-05 22:53:00
6:53 PM,30.9,18.0,59,30.31,10.0,WNW,9.2,-,N/A,,Overcast,300,2012-12-05 23:53:00
7:53 PM,30.9,18.0,59,30.33,10.0,NW,10.4,-,N/A,,Overcast,310,2012-12-06 00:53:00
8:53 PM,30.0,18.0,61,30.33,10.0,North,9.2,-,N/A,,Overcast,10,2012-12-06 01:53:00
9:53 PM,30.0,16.0,56,30.33,10.0,NNW,6.9,-,N/A,,Overcast,330,2012-12-06 02:53:00
10:53 PM,28.9,16.0,58,30.34,10.0,North,12.7,-,N/A,,Overcast,350,2012-12-06 03:53:00
11:53 PM,28.9,16.0,58,30.36,10.0,NE,4.6,-,N/A,,Overcast,40,2012-12-06 04:53:00